Regional Weather Roundup
Issued by NWS

Home | Current Version | Previous Version | Graphics & Text | Print | Product List | Glossary On
Versions: 1 2 3 4 5 6 7 8 9 10 11 12 13 14 15 16 17 18 19 20 21 22 23 24 25 26 27 28 29 30 31 32 33 34 35 36 37 38 39 40 41 42 43 44 45 46 47 48 49 50
000
ASUS43 KLOT 020012
RWRIL

ILLINOIS REGIONAL WEATHER ROUNDUP
NATIONAL WEATHER SERVICE CHICAGO/ROMEOVILLE IL
700 PM CDT SAT AUG 01 2015

NOTE: "FAIR" INDICATES FEW OR NO CLOUDS BELOW 12,000 FEET WITH NO
SIGNIFICANT WEATHER AND/OR OBSTRUCTIONS TO VISIBILITY.

* THESE STATIONS ARE NOT UNDER NWS QUALITY CONTROL. THEY ALSO MAY NOT
  REPORT WEATHER SUCH AS PRECIPITATION OR FOG.

ILZ001-002-007-009-015-016-024-020100-
NORTHWEST ILLINOIS

CITY           SKY/WX    TMP DP  RH WIND       PRES   REMARKS
MOLINE         PTSUNNY   82  68  62 SW6       29.92F HX  85
6HR MIN TEMP:  82; 6HR MAX TEMP:  87;

STERLING*      CLOUDY    81  66  61 W8        29.89S HX  83
SAVANNA*       PTSUNNY   81  67  61 SW7       29.91S HX  83
$$

ILZ003-004-008-010-011-017-018-020100-
NORTH CENTRAL ILLINOIS

CITY           SKY/WX    TMP DP  RH WIND       PRES   REMARKS
ROCKFORD       PTSUNNY   81  64  56 W12       29.91F HX  82
6HR MIN TEMP:  81; 6HR MAX TEMP:  87;

FREEPORT*      MOSUNNY   78  67  67 SW7       29.92F HX  80
ROCHELLE*      PTSUNNY   78  65  63 W8        29.92S HX  80
DE KALB*       MOSUNNY   80  64  59 W9        29.92S HX  81
PERU*          PTSUNNY   81  65  58 SW7       29.93S HX  82
$$

ILZ005-006-012>014-019>023-020100-
NORTHEAST ILLINOIS

CITY           SKY/WX    TMP DP  RH WIND       PRES   REMARKS
CHICAGO-OHARE  PTSUNNY   83  61  47 SW16      29.89F HX  83
6HR MIN TEMP:  82; 6HR MAX TEMP:  87;

CHICAGO-MIDWAY PTSUNNY   85  59  41 W14       29.89F HX  84
6HR MIN TEMP:  85; 6HR MAX TEMP:  89;

AURORA         MOSUNNY   80  62  54 SW9       29.91F HX  81
6HR MIN TEMP:  80; 6HR MAX TEMP:  86;

LANSING*       SUNNY     82  59  45 W10G18    29.91S HX  82
JOLIET*        MOSUNNY   82  64  54 SW7       29.91F HX  84
WAUKEGAN       MOSUNNY   82  63  52 SW6       29.86F HX  83
6HR MIN TEMP:  80; 6HR MAX TEMP:  85;

DUPAGE AIRPORT MOSUNNY   82  62  50 SW13      29.90F HX  83
6HR MIN TEMP:  82; 6HR MAX TEMP:  86;

KANKAKEE*      MOSUNNY   79  64  60 SW6       29.94F HX  81
WHEELING       MOSUNNY   84  59  42 W14       29.89F HX  84
6HR MIN TEMP:  83; 6HR MAX TEMP:  87;

MORRIS*        PTSUNNY   79  65  61 W7        29.91F HX  81
ROMEOVILLE*    MOSUNNY   80  60  50 W10G18    29.91F HX  81
NORTHERLY ISL    N/A     84  58  40 W7          N/A  HX  83
$$

LMZ740>746-020100-
SOUTHERN LAKE MICHIGAN

STATION/POSITION SKY/WX   TEMP    WIND        PRES    VSBY  WAVE
                          AIR SEA DIR/SP/G                  HT/PER
                          (F)     (DEG/KT/KT) (MB)    (MI)  (FT/S)
HARRISON CRIB              82     260/ 21/ 24   N/A
BURNHAM HARBOR             83     250/ 11/ 16   N/A
CALUMET HARBOR             84     240/  5/ 14   N/A
BURNS HARBOR               81     260/ 16/ 19 1012.9F
MICHIGAN CITY              78      30/  1/  2   N/A
MICHIGAN CITY 6N           79 75  240/  6/  8   N/A           1
ST. JOSEPH                 77 75  190/  4/  4   N/A           1/ 4
$$

ILZ025>027-034>036-040-047-049-050-058-095>099-020100-
WEST-CENTRAL ILLINOIS

CITY           SKY/WX    TMP DP  RH WIND       PRES   REMARKS
QUINCY         SUNNY     84  71  65 S5        29.96F HX  89
GALESBURG*     MOSUNNY   79  70  73 SW3       29.95S HX  82
MACOMB*        MOSUNNY   83  69  63 SW6       29.98S HX  86
JACKSONVILLE*  SUNNY     84  70  61 SW3       29.97S HX  88
PITTSFIELD*    MOSUNNY   84  71  64 S3        29.98F HX  88
$$

ILZ028>032-037-038-041>044-048-051>054-059>061-020100-
CENTRAL ILLINOIS

CITY           SKY/WX    TMP DP  RH WIND       PRES   REMARKS
PONTIAC        PTSUNNY   80  70  71 SW5       29.95S HX  83
BLOOMINGTON    MOSUNNY   82  63  52 SW10      29.97F HX  83
DECATUR        SUNNY     83  62  49 SW10      29.98S HX  84
PEORIA         MOSUNNY   84  64  50 SW8       29.95F HX  85
6HR MIN TEMP:  83; 6HR MAX TEMP:  89;

LACON*         PTSUNNY   81  64  57 SW6       29.93S HX  82
LINCOLN*       SUNNY     84  61  45 SW5       29.95F HX  84
SPRINGFIELD    SUNNY     84  63  49 SW7       29.97F HX  85
6HR MIN TEMP:  84; 6HR MAX TEMP:  88;

TAYLORVILLE    SUNNY     81  64  57 S3        29.98F HX  82
$$

ILZ033-039-045-046-055>057-062-063-020100-
EAST-CENTRAL ILLINOIS

CITY           SKY/WX    TMP DP  RH WIND       PRES   REMARKS
CHAMPAIGN      SUNNY     81  66  60 SW6       29.97F HX  83
DANVILLE*      MOSUNNY   78  64  62 SW8       29.95R HX  80
RANTOUL*       MOSUNNY   82  66  57 SW5       29.96F HX  84
MATTOON        SUNNY     81  61  50 SW6       29.97F HX  82
PARIS*         SUNNY     80  66  62 SW3       29.98F HX  82
$$

ILZ079-100>102-020100-
SOUTHWEST ILLINOIS

CITY           SKY/WX    TMP DP  RH WIND       PRES   REMARKS
BELLEVILLE     MOSUNNY   84  71  64 S5        29.96F HX  88
CAHOKIA*       PTSUNNY   86  69  56 SE6       29.96F HX  90
SPARTA*        PTSUNNY   83  70  65 E3        29.99S HX  87
$$

ILZ064>066-069>071-074>076-080>082-084>086-088>090-092>094-020100-
SOUTH-CENTRAL ILLINOIS

CITY           SKY/WX    TMP DP  RH WIND       PRES   REMARKS
CARBONDALE     PTSUNNY   83  70  64 CALM      29.98S HX  87
6HR MIN TEMP:  83; 6HR MAX TEMP:  89;

CAIRO*         PTSUNNY   85  73  67 CALM      29.97R HX  92
EFFINGHAM*     SUNNY     83  55  38 SW3       30.00S HX  82
MARION         MOSUNNY   84  68  58 E3        29.99S HX  87
MT. VERNON     SUNNY     88  63  42 SE5       29.98F HX  88
CENTRALIA*     SUNNY     81  63  55 CALM      29.98F HX  82
SALEM*         SUNNY     85  61  44 CALM      29.99S HX  85
METROPOLIS*    PTSUNNY   83  74  74 CALM      29.98S HX  89
$$

ILZ067-068-072-073-078-083-087-091-020100-
SOUTHEAST ILLINOIS

CITY           SKY/WX    TMP DP  RH WIND       PRES   REMARKS
LAWRENCEVILLE  SUNNY     83  58  42 W3        29.98F HX  83
FLORA*         SUNNY     84  58  40 CALM      29.99S HX  83
FAIRFIELD*     SUNNY     81  64  55 CALM      29.97S HX  82
HARRISBURG*    MOSUNNY   84  63  48 CALM      29.99F HX  84
ROBINSON*      SUNNY     81  63  54 CALM      29.99F HX  82
CARMI*         SUNNY     83  60  45 CALM      29.98S HX  83
$$

ABBREVIATIONS USED IN REMARKS
   TC - TEMPERATURE IN CELSIUS
  WCI - WIND CHILL INDEX
   HX - HEAT INDEX
  VSB - VISIBILITY
$$




USA.gov is the U.S. government's official web portal to all federal, state and local government web resources and services.